When you browse on this site, cookies collect data to enhance your experience and personalize the content and advertising you see.
Visit our Privacy Policy to learn more. By continuing to use the site, you agree to this use of cookies and data.
  • In Hungary
  • List of Countries
  • For 7 days
  • Water Temperature
  • Satellite Maps
  • Weather Map
  • News
  • Weather Widgets
  • user-avatar
    Login

    Hourly Weather Hadera

    Today, 20 July, Saturday

    Time Temperature Precipitation Wind Pressure Humidity
    00:00 +21°C° 0 mm 2 mps 715 mmHg 77%
    01:00 +21°C° 0 mm 2 mps 715 mmHg 76%
    02:00 +21°C° 0 mm 2 mps 714 mmHg 74%
    03:00 +21°C° 0 mm 2 mps 715 mmHg 71%
    04:00 +21°C° 0 mm 2 mps 715 mmHg 68%
    05:00 +21°C° 0 mm 2 mps 715 mmHg 64%
    06:00 +24°C° 0 mm 2 mps 715 mmHg 58%
    07:00 +26°C° 0 mm 2 mps 715 mmHg 51%
    08:00 +29°C° 0 mm 2 mps 715 mmHg 43%
    09:00 +29°C° 0 mm 2 mps 716 mmHg 45%
    10:00 +30°C° 0 mm 3 mps 716 mmHg 47%
    11:00 +30°C° 0 mm 4 mps 716 mmHg 49%
    12:00 +30°C° 0 mm 4 mps 716 mmHg 49%
    13:00 +30°C° 0 mm 4 mps 716 mmHg 49%
    14:00 +32°C° 0 mm 5 mps 716 mmHg 49%
    15:00 +30°C° 0 mm 5 mps 715 mmHg 49%
    16:00 +30°C° 0 mm 5 mps 715 mmHg 49%
    17:00 +29°C° 0 mm 5 mps 715 mmHg 49%
    18:00 +27°C° 0 mm 4 mps 714 mmHg 56%
    19:00 +26°C° 0 mm 4 mps 714 mmHg 64%
    20:00 +24°C° 0 mm 3 mps 714 mmHg 71%
    21:00 +24°C° 0 mm 3 mps 714 mmHg 71%
    22:00 +24°C° 0 mm 3 mps 714 mmHg 70%
    23:00 +23°C° 0 mm 2 mps 714 mmHg 70%

    Tomorrow, 21 July, Sunday

    Time Temperature Precipitation Wind Pressure Humidity
    00:00 +23°C° 0 mm 2 mps 714 mmHg 66%
    01:00 +23°C° 0 mm 2 mps 714 mmHg 62%
    02:00 +24°C° 0 mm 2 mps 713 mmHg 58%
    03:00 +23°C° 0 mm 2 mps 713 mmHg 59%
    04:00 +23°C° 0 mm 2 mps 713 mmHg 59%
    05:00 +23°C° 0 mm 2 mps 713 mmHg 59%
    06:00 +25°C° 0 mm 2 mps 713 mmHg 53%
    07:00 +28°C° 0 mm 2 mps 713 mmHg 47%
    08:00 +30°C° 0 mm 2 mps 714 mmHg 40%
    09:00 +31°C° 0 mm 3 mps 714 mmHg 41%
    10:00 +33°C° 0 mm 3 mps 714 mmHg 42%
    11:00 +33°C° 0 mm 4 mps 715 mmHg 43%
    12:00 +33°C° 0 mm 4 mps 714 mmHg 42%
    13:00 +33°C° 0 mm 4 mps 714 mmHg 42%
    14:00 +33°C° 0 mm 4 mps 714 mmHg 41%
    15:00 +33°C° 0 mm 4 mps 713 mmHg 41%
    16:00 +31°C° 0 mm 3 mps 713 mmHg 42%
    17:00 +31°C° 0 mm 3 mps 713 mmHg 42%
    18:00 +29°C° 0 mm 3 mps 713 mmHg 50%
    19:00 +27°C° 0 mm 2 mps 713 mmHg 58%
    20:00 +25°C° 0 mm 2 mps 713 mmHg 67%
    21:00 +25°C° 0 mm 2 mps 713 mmHg 61%
    22:00 +25°C° 0 mm 2 mps 713 mmHg 56%
    23:00 +25°C° 0 mm 2 mps 713 mmHg 50%

    Day after tomorrow, 22 July, Monday

    Time Temperature Precipitation Wind Pressure Humidity
    00:00 +25°C° 0 mm 2 mps 713 mmHg 51%
    01:00 +25°C° 0 mm 2 mps 712 mmHg 51%
    02:00 +24°C° 0 mm 2 mps 712 mmHg 52%
    03:00 +24°C° 0 mm 1 mps 712 mmHg 52%
    04:00 +24°C° 0 mm 1 mps 712 mmHg 53%
    05:00 +23°C° 0 mm 1 mps 712 mmHg 53%
    06:00 +26°C° 0 mm 1 mps 712 mmHg 46%
    07:00 +29°C° 0 mm 1 mps 713 mmHg 38%
    08:00 +32°C° 0 mm 1 mps 713 mmHg 31%
    09:00 +32°C° 0 mm 1 mps 713 mmHg 31%
    10:00 +34°C° 0 mm 2 mps 714 mmHg 32%
    11:00 +34°C° 0 mm 2 mps 714 mmHg 33%
    12:00 +34°C° 0 mm 2 mps 714 mmHg 33%
    13:00 +34°C° 0 mm 2 mps 714 mmHg 34%
    14:00 +34°C° 0 mm 2 mps 714 mmHg 34%
    15:00 +34°C° 0 mm 2 mps 713 mmHg 34%
    16:00 +32°C° 0 mm 2 mps 713 mmHg 35%
    17:00 +32°C° 0 mm 2 mps 713 mmHg 35%
    18:00 +30°C° 0 mm 1 mps 713 mmHg 41%
    19:00 +28°C° 0 mm 1 mps 712 mmHg 47%
    20:00 +26°C° 0 mm 1 mps 712 mmHg 53%
    21:00 +26°C° 0 mm 2 mps 712 mmHg 55%
    22:00 +25°C° 0 mm 2 mps 712 mmHg 57%
    23:00 +25°C° 0 mm 3 mps 712 mmHg 59%

    23 July, Tuesday

    Time Temperature Precipitation Wind Pressure Humidity
    00:00 +25°C° 0 mm 2 mps 712 mmHg 57%
    01:00 +24°C° 0 mm 2 mps 711 mmHg 54%
    02:00 +24°C° 0 mm 2 mps 711 mmHg 52%
    03:00 +24°C° 0 mm 2 mps 711 mmHg 52%
    04:00 +23°C° 0 mm 2 mps 711 mmHg 52%
    05:00 +23°C° 0 mm 1 mps 711 mmHg 51%
    06:00 +26°C° 0 mm 1 mps 711 mmHg 44%
    07:00 +29°C° 0 mm 1 mps 711 mmHg 38%
    08:00 +32°C° 0 mm 1 mps 712 mmHg 31%
    09:00 +32°C° 0 mm 1 mps 712 mmHg 31%
    10:00 +34°C° 0 mm 2 mps 712 mmHg 31%
    11:00 +35°C° 0 mm 2 mps 713 mmHg 30%
    12:00 +35°C° 0 mm 3 mps 712 mmHg 31%
    13:00 +35°C° 0 mm 3 mps 712 mmHg 31%
    14:00 +35°C° 0 mm 3 mps 712 mmHg 31%
    15:00 +34°C° 0 mm 3 mps 712 mmHg 32%
    16:00 +34°C° 0 mm 3 mps 711 mmHg 33%
    17:00 +33°C° 0 mm 3 mps 711 mmHg 33%
    18:00 +30°C° 0 mm 3 mps 711 mmHg 37%
    19:00 +28°C° 0 mm 3 mps 711 mmHg 42%
    20:00 +26°C° 0 mm 2 mps 711 mmHg 46%
    21:00 +26°C° 0 mm 2 mps 711 mmHg 45%
    22:00 +25°C° 0 mm 2 mps 711 mmHg 44%
    23:00 +25°C° 0 mm 2 mps 711 mmHg 43%

    24 July, Wednesday

    Time Temperature Precipitation Wind Pressure Humidity
    00:00 +25°C° 0 mm 2 mps 711 mmHg 44%
    01:00 +24°C° 0 mm 2 mps 711 mmHg 45%
    02:00 +24°C° 0 mm 2 mps 710 mmHg 45%
    03:00 +24°C° 0 mm 2 mps 710 mmHg 45%
    04:00 +23°C° 0 mm 1 mps 710 mmHg 46%
    05:00 +23°C° 0 mm 1 mps 710 mmHg 46%
    06:00 +26°C° 0 mm 1 mps 711 mmHg 40%
    07:00 +28°C° 0 mm 2 mps 711 mmHg 35%
    08:00 +31°C° 0 mm 2 mps 712 mmHg 30%
    09:00 +32°C° 0 mm 2 mps 712 mmHg 30%
    10:00 +33°C° 0 mm 3 mps 712 mmHg 31%
    11:00 +34°C° 0 mm 4 mps 712 mmHg 31%
    12:00 +34°C° 0 mm 4 mps 712 mmHg 32%
    13:00 +34°C° 0 mm 4 mps 712 mmHg 33%
    14:00 +34°C° 0 mm 4 mps 712 mmHg 34%
    15:00 +33°C° 0 mm 4 mps 712 mmHg 35%
    16:00 +33°C° 0 mm 3 mps 712 mmHg 36%
    17:00 +31°C° 0 mm 3 mps 711 mmHg 37%
    18:00 +29°C° 0 mm 3 mps 711 mmHg 44%
    19:00 +27°C° 0 mm 2 mps 711 mmHg 51%
    20:00 +24°C° 0 mm 2 mps 711 mmHg 58%
    21:00 +24°C° 0 mm 2 mps 711 mmHg 59%
    22:00 +23°C° 0 mm 2 mps 711 mmHg 61%
    23:00 +23°C° 0 mm 2 mps 711 mmHg 62%

    25 July, Thursday

    Time Temperature Precipitation Wind Pressure Humidity
    00:00 +23°C° 0 mm 2 mps 711 mmHg 59%
    01:00 +23°C° 0 mm 1 mps 711 mmHg 56%
    02:00 +22°C° 0 mm 1 mps 711 mmHg 53%
    03:00 +22°C° 0 mm 1 mps 711 mmHg 53%
    04:00 +22°C° 0 mm 1 mps 711 mmHg 52%
    05:00 +22°C° 0 mm 1 mps 711 mmHg 52%
    06:00 +25°C° 0 mm 1 mps 711 mmHg 47%
    07:00 +27°C° 0 mm 1 mps 712 mmHg 42%
    08:00 +30°C° 0 mm 1 mps 713 mmHg 38%
    09:00 +31°C° 0 mm 1 mps 713 mmHg 38%
    10:00 +32°C° 0 mm 2 mps 713 mmHg 39%
    11:00 +32°C° 0 mm 2 mps 713 mmHg 40%
    12:00 +32°C° 0 mm 2 mps 713 mmHg 41%
    13:00 +33°C° 0 mm 3 mps 713 mmHg 41%
    14:00 +33°C° 0 mm 3 mps 713 mmHg 42%
    15:00 +33°C° 0 mm 3 mps 713 mmHg 42%
    16:00 +31°C° 0 mm 3 mps 712 mmHg 42%
    17:00 +31°C° 0 mm 2 mps 712 mmHg 43%
    18:00 +29°C° 0 mm 2 mps 712 mmHg 50%
    19:00 +27°C° 0 mm 2 mps 712 mmHg 56%
    20:00 +25°C° 0 mm 1 mps 712 mmHg 63%
    21:00 +25°C° 0 mm 2 mps 712 mmHg 62%
    22:00 +25°C° 0 mm 2 mps 712 mmHg 61%
    23:00 +25°C° 0 mm 2 mps 712 mmHg 61%
    Show more